AC5JC-1 Weather Reports


Display with metric or nautical units.
time (UTC)temp
F
wind
direction
speed
MPH
gust
MPH
rain 1hr
in
rain 24hr
in
rain mn
in
humidity
%
barometer
mb
20181018122022 54 325 1.0 4.0 0.00 0.00 0.00 93 1047.8
20181018115053 54 295 0.0 2.0 0.00 0.00 0.00 93 1047.6
20181018114038 54 312 1.0 4.0 0.00 0.00 0.00 93 1047.6
20181018113024 54 329 0.0 2.0 0.00 0.00 0.00 93 1047.6
20181018110058 53 320 2.0 4.0 0.00 0.00 0.00 93 1047.4
20181018105044 53 333 2.0 4.0 0.00 0.00 0.00 94 1047.1
20181018104031 53 331 1.0 2.0 0.00 0.00 0.00 94 1047.5
20181018103018 53 317 1.0 4.0 0.00 0.00 0.00 95 1047.3
20181018095547 52 320 1.0 4.0 0.00 0.00 0.00 96 1047.6
20181018094533 52 358 1.0 4.0 0.00 0.00 0.00 96 1047.3
20181018093518 52 309 1.0 7.0 0.00 0.00 0.00 96 1047.3
20181018090049 51 352 3.0 7.0 0.00 0.00 0.00 96 1047.4
20181018085035 51 7 2.0 4.0 0.00 0.00 0.00 96 1047.4
20181018084021 51 332 3.0 9.0 0.00 0.00 0.00 96 1047.4
20181018080549 51 345 1.0 4.0 0.00 0.00 0.00 97 1047.8
20181018075535 51 310 0.0 4.0 0.00 0.00 0.00 97 1047.8
20181018074522 51 313 1.0 4.0 0.00 0.00 0.00 97 1047.8
20181018071050 51 330 2.0 4.0 0.00 0.00 0.00 97 1048.3
20181018070037 51 344 1.0 2.0 0.00 0.00 0.00 96 1048.3
20181018065023 51 348 1.0 4.0 0.00 0.00 0.00 95 1048.3
20181018062100 51 327 1.0 4.0 0.00 0.00 0.00 93 1048.6
20181018061047 51 2 4.0 7.0 0.00 0.00 0.00 92 1048.5
20181018060033 51 0 3.0 9.0 0.00 0.00 0.00 90 1048.5
20181018055020 52 345 2.0 7.0 0.00 0.00 0.00 86 1048.5
20181018051547 51 341 0.0 2.0 0.00 0.00 0.00 84 1048.9
20181018050534 51 344 1.0 2.0 0.00 0.00 0.00 83 1048.9
20181018045520 51 5 2.0 4.0 0.00 0.00 0.00 84 1048.9
20181018042049 50 33 2.0 4.0 0.00 0.00 0.00 85 1048.6
20181018041035 51 13 2.0 4.0 0.00 0.00 0.00 85 1049.0
20181018040021 51 328 3.0 4.0 0.00 0.00 0.00 84 1049.0
20181018033057 51 355 2.0 9.0 0.00 0.00 0.00 81 1048.7
20181018032044 51 357 2.0 4.0 0.00 0.00 0.00 81 1048.6
20181018031031 51 347 1.0 4.0 0.00 0.00 0.00 80 1048.8
20181018030018 51 7 2.0 7.0 0.00 0.00 0.00 79 1048.6
20181018022548 52 0 3.0 7.0 0.00 0.00 0.00 80 1048.6
20181018021534 52 26 3.0 9.0 0.00 0.00 0.00 81 1048.6
20181018020521 52 33 5.0 7.0 0.00 0.00 0.00 81 1048.5
20181018013558 52 30 2.0 7.0 0.00 0.00 0.00 83 1048.2
20181018012545 52 3 3.0 12.0 0.00 0.00 0.00 85 1048.4
20181018011531 52 38 3.0 9.0 0.00 0.00 0.00 85 1048.1
20181018010518 52 21 2.0 4.0 0.00 0.00 0.00 86 1048.0
20181018003048 51 330 6.0 12.0 0.00 0.00 0.00 91 1047.8
20181018002036 51 333 3.0 4.0 0.00 0.00 0.00 95 1047.7
20181018001021 51 19 5.0 9.0 0.00 0.00 0.00 98 1047.6
20181017233550 51 4 3.0 9.0 0.00 0.00 0.00 99 1047.4
20181017232537 51 318 2.0 4.0 0.00 0.00 0.00 99 1047.6
20181017231524 51 352 3.0 7.0 0.00 0.00 0.00 99 1047.4
20181017224559 51 352 2.0 4.0 0.00 0.00 0.00 98 1047.3
20181017223546 51 348 3.0 9.0 0.00 0.00 0.00 99 1047.2
20181017222533 51 318 1.0 4.0 0.00 0.00 0.00 99 1047.4
20181017221518 51 15 4.0 9.0 0.00 0.00 0.00 99 1047.2
20181017214553 51 340 5.0 9.0 0.00 0.00 0.00 98 1047.1
20181017213538 51 13 2.0 4.0 0.00 0.00 0.00 98 1047.1
20181017212523 50 342 3.0 9.0 0.00 0.00 0.00 99 1047.1
20181017205047 51 339 2.0 7.0 0.00 0.00 0.00 99 1046.9
20181017204033 51 339 3.0 9.0 0.00 0.00 0.00 99 1046.8
20181017203018 51 347 4.0 9.0 0.00 0.00 0.00 99 1046.9
20181017200049 52 327 3.0 7.0 0.00 0.00 0.00 98 1046.8
20181017195035 52 321 3.0 4.0 0.00 0.00 0.00 98 1046.7
20181017194020 52 328 1.0 4.0 0.00 0.00 0.00 98 1046.5
20181017191051 53 346 1.0 7.0 0.00 0.00 0.00 98 1046.5
20181017190037 53 316 3.0 7.0 0.00 0.00 0.00 98 1046.5
20181017185022 53 7 1.0 4.0 0.00 0.00 0.00 97 1046.5
20181017182054 54 64 0.0 7.0 0.00 0.00 0.00 97 1046.8
20181017181040 53 45 2.0 7.0 0.00 0.00 0.00 97 1046.7
20181017180025 53 354 1.0 4.0 0.00 0.00 0.00 97 1046.8
20181017173055 53 5 2.0 7.0 0.00 0.00 0.00 97 1047.1
20181017172041 53 23 4.0 9.0 0.00 0.00 0.00 97 1047.2
20181017171025 53 341 3.0 9.0 0.00 0.00 0.00 97 1047.1
20181017163550 54 32 4.0 9.0 0.00 0.00 0.00 97 1047.1
20181017162535 54 35 2.0 7.0 0.00 0.00 0.00 97 1046.9
20181017161520 54 5 4.0 7.0 0.00 0.00 0.00 97 1047.1
20181017154550 53 346 2.0 4.0 0.00 0.00 0.00 97 1047.3
20181017153536 53 339 3.0 7.0 0.00 0.00 0.00 97 1047.2
20181017152521 53 359 3.0 7.0 0.00 0.00 0.00 97 1047.1
20181017145553 53 44 2.0 7.0 0.00 0.00 0.00 97 1047.0
20181017144540 53 19 2.0 7.0 0.00 0.00 0.00 97 1046.9
20181017143523 53 7 4.0 12.0 0.00 0.00 0.00 97 1046.7
20181017140554 53 3 4.0 9.0 0.00 0.00 0.00 97 1046.3
20181017135539 53 353 1.0 4.0 0.00 0.00 0.00 97 1046.0
20181017134525 53 344 2.0 9.0 0.00 0.00 0.00 97 1046.3
20181017131556 53 303 2.0 4.0 0.00 0.00 0.00 97 1045.8
20181017130539 53 333 2.0 4.0 0.00 0.00 0.00 98 1045.5
20181017125524 52 324 1.0 4.0 0.00 0.00 0.00 98 1045.5